Weather in Kalachi

Russia / Novosibirsk Oblast     53°35′22″N   77°52′41″E
temp.,
°C
wind,
m/s
gust,
m/s
humid.,
%
clouds,
%
prec.,
mm/h
press.,
hPa
HPBL,
m
9 december, thu
thu901:00−23wsw349747 0.0 104356
04:00−23wsw35965 0.0 104458
07:00−23wsw35955 0.0 104659
10:00−23wsw349583 0.0 104753
13:00−19sw35928 0.0 1048137
16:00−18sw36926 0.0 1048110
19:00−20ssw379474 0.0 104898
22:00−16ssw498797 0.0 1047210
10 december, fri
fri1001:00−15ssw41086100 0.0 1046249
04:00−13ssw5108499 0.0 1045282
07:00−12ssw5108398 0.0 1044278
10:00−11ssw598291 0.0 1044244
13:00−11ssw498157 0.0 1044220
16:00−12ssw3784100 0.0 1043135
19:00−14ssw47845 0.0 104285
22:00−14s48825 0.0 1041110
11 december, sat
sat1101:00−13s498085 0.0 1040131
04:00−12s41079100 0.0 1037149
07:00−11sse41081100 0.0 1035152
10:00−10s41180100 0.0 1033183
13:00−8s51279100 0.0 1031229
16:00−8s4982100 0.0 1029188
19:00−9s4786100 0.0 1027108
22:00−12sw2292100 0.0 102613
12 december, sun
sun1201:00−13wnw2293100 0.0 102524
04:00−12nnw3591100 0.0 102576
07:00−12n4895100 0.0 1025199
10:00−12nnw4891100 0.0 1026260
13:00−13nnw4790100 0.0 1028288
16:00−15nw489388 0.0 1029293
19:00−20nw36985 0.0 103185
22:00−21wnw35985 0.0 103359
13 december, mon
mon1301:00−22wnw349912 0.0 103350
04:00−19w2597100 0.0 103396
07:00−18wsw3596100 0.0 1033114
10:00−15sw3697100 0.1 1032183
13:00−13sw4893100 0.2 1031275
16:00−12wsw4894100 0.0 1029370
19:00−12w4895100 0.5 1029390
22:00−13wnw479689 0.3 1029217